Location: Gettysburg
(39.8310°N, 77.2310°W)
Time: 06:44:58
(UTC-05:00)

ATLAS 2AS CENTAUR R/B - Visible Passes

Search period start: 27 November 2014 00:00
Search period end: 07 December 2014 00:00
Orbit: 915 x 1297 km, 63.7° (Epoch: 25 November)

Date Brightness Start Highest point End Pass type
(mag) Time Alt. Az. Time Alt. Az. Time Alt. Az.
27 Nov 5.0 18:09:16 10° NNW 18:11:53 12° N 18:14:31 10° NNE visible
27 Nov 5.0 20:01:59 10° NNW 20:04:06 14° N 20:04:06 14° N visible
28 Nov 4.9 17:22:37 10° NW 17:26:01 13° NNW 17:29:29 10° NNE visible
28 Nov 4.9 19:17:19 10° NNW 19:20:47 14° NNE 19:20:47 14° NNE visible
28 Nov 5.3 21:07:43 10° NNW 21:08:14 12° NNW 21:08:14 12° NNW visible
29 Nov 4.9 18:32:24 10° NNW 18:35:12 12° N 18:37:30 11° NNE visible
29 Nov 5.0 20:23:09 10° NNW 20:24:56 16° N 20:24:56 16° N visible
30 Nov 4.9 17:46:52 10° NNW 17:49:17 11° N 17:51:43 10° NNE visible
30 Nov 4.8 19:38:35 10° NNW 19:41:40 17° N 19:41:40 17° N visible
30 Nov 5.5 21:28:57 10° NNW 21:29:06 11° NNW 21:29:06 11° NNW visible
01 Dec 4.7 18:53:59 10° NNW 18:58:22 15° NNE 18:58:25 15° NNE visible
01 Dec 5.1 20:44:19 10° NNW 20:45:51 16° NNW 20:45:51 16° NNW visible
02 Dec 4.8 18:09:15 10° NNW 18:12:34 13° NNE 18:15:12 11° NNE visible
02 Dec 4.7 19:59:44 10° NNW 20:02:38 20° N 20:02:38 20° N visible
03 Dec 4.9 17:24:08 10° NNW 17:26:41 12° N 17:29:15 10° NNE visible
03 Dec 4.5 19:15:10 10° NNW 19:19:27 21° NNE 19:19:27 21° NNE visible
03 Dec 5.2 21:05:37 10° NNW 21:06:54 16° NNW 21:06:54 16° NNW visible
04 Dec 4.5 18:30:36 10° NNW 18:35:38 17° NNE 18:36:19 17° NNE visible
04 Dec 4.6 20:20:56 10° NNW 20:23:46 23° NNW 20:23:46 23° NNW visible
05 Dec 4.7 17:45:58 10° NNW 17:49:55 14° NNE 17:53:13 11° NE visible
05 Dec 4.2 19:36:20 10° NNW 19:40:41 28° N 19:40:41 28° N visible
05 Dec 5.3 21:27:12 10° NW 21:28:08 14° NW 21:28:08 14° NW visible
06 Dec 4.1 18:51:45 10° NNW 18:57:39 26° NNE 18:57:39 26° NNE visible
06 Dec 4.7 20:42:20 10° NNW 20:45:07 24° NNW 20:45:07 24° NNW visible
